Flag for Canada Weather past 2 weeks in Belleville, Ontario, Canada

Now
68 °F

Clear.


Feels Like: 68 °F
Forecast: 59 / 78 °F
Wind: 7 mph from Southwest

Location: Trenton

Current Time: Aug 1, 2014 at 12:52:14 AM

Latest Report: Aug 1, 2014 at 12:00 AM


Visibility: 15 mi

Pressure: 30.05 "Hg

Humidity: 78%

Dew point: 61 °F

Location of BellevilleLocation

Historic Weather in Belleville — Graph

°F

Belleville temperature yesterday

Maximum temperature yesterday: 72 °F (at 1:00 PM)
Minimum temperature yesterday: 57 °F (at 3:00 AM)
Average temperature yesterday: 65 °F

Past Weeks' High & Low Weather Summary

 TemperatureHumidityPressure
High81 °F (Jul 22, 1:00 PM)100% (Jul 17, 5:00 AM)30.24 "Hg (Jul 17, 5:00 AM)
Low50 °F (Jul 17, 5:00 AM)41% (Jul 25, 5:00 PM)29.60 "Hg (Jul 28, 2:00 AM)
Average67 °F77%29.97 "Hg
* Reported Midnight between Jul 16 and Jul 17 — Midnight between Jul 31 and Aug 1, Belleville, Weather by CustomWeather, © 2014

Note: Actual official high and low records may vary slightly from our data, if they occured in-between our weather recording intervals... More about our weather records

Advertising

Belleville weather history for previous 24 hours

 ConditionsComfort  
Time TempWeatherWind HumidityBarometerVisibility
12:00 AM
Aug 1
68 °FClear.7 mph78%30.05 "Hg15 mi
11:00 PM
Jul 31
66 °FPassing clouds.5 mph88%30.05 "Hg15 mi
10:00 PM64 °FPassing clouds.5 mph88%30.05 "Hg15 mi
9:00 PM64 °FPartly sunny.5 mph88%30.04 "Hg15 mi
8:00 PM68 °FScattered clouds.7 mph78%30.03 "Hg12 mi
7:00 PM70 °FScattered clouds.12 mph69%30.03 "Hg12 mi
6:00 PM70 °FScattered clouds.13 mph69%30.01 "Hg15 mi
5:00 PM70 °FPartly sunny.14 mph73%30.01 "Hg15 mi
4:00 PM72 °FPartly sunny.13 mph69%30.01 "Hg15 mi
3:00 PM70 °FPartly sunny.15 mph64%30.01 "Hg15 mi
2:00 PM70 °FPartly sunny.14 mph64%30.00 "Hg15 mi
1:00 PM72 °FScattered clouds.10 mph65%30.00 "Hg15 mi
12:00 PM70 °FPartly sunny.9 mph60%30.00 "Hg15 mi
11:00 AM70 °FScattered clouds.6 mph60%29.99 "Hg15 mi
10:00 AM66 °FBroken clouds.2 mph73%29.98 "Hg15 mi
9:00 AM63 °FBroken clouds.No wind88%29.98 "Hg12 mi
8:00 AM61 °FThunderstorms. Broken clouds.No wind94%29.98 "Hg9 mi
7:00 AM59 °FPartly sunny.No wind100%29.98 "Hg9 mi
6:00 AM59 °FFog.No wind100%29.96 "Hg6 mi
5:00 AM59 °FFog.No wind100%29.96 "Hg2 mi
4:00 AM59 °FFog.2 mph100%29.96 "Hg3 mi
3:00 AM57 °FFog.3 mph100%29.96 "Hg4 mi
2:00 AM61 °FFog.3 mph94%29.96 "Hg6 mi
1:00 AM59 °FFog.No wind100%29.97 "Hg6 mi
12:00 AM61 °FMostly cloudy.2 mph100%29.97 "Hg9 mi
Weather by CustomWeather, © 2014

See weather overviewHow to use our weather pages